Location: ??????????
(44.2167°N, 135.5333°E)
Time: 13:45:31
(UTC+00:00)

ATLAS 3B R/B - Pass Details

Date: 15 June 2025
Orbit: 935 x 1258 km, 63.8° (Epoch: 15 July)

Event Time Altitude Azimuth Distance (km) Brightness Sun altitude
Rises 16:59:48 0° 320° (NW) 4,218 6.1 -17.0°
Reaches altitude 10° 17:02:44 10° 315° (NW) 3,239 5.4 -16.7°
Maximum altitude 17:10:09 48° 244° (WSW) 1,561 3.2 -16.0°
Enters shadow 17:16:46 12° 175° (S) 2,934 4.5 -15.4°
